Location: G�ppingen
(0.0000°N, 0.0000°E)
Time: 05:01:19
(UTC+00:00)

Tiangong 2 - Pass Details

Date: 20 May 2019
Orbit: 376 x 389 km, 42.8° (Epoch: 19 June)

Event Time Altitude Azimuth Distance (km) Brightness Sun altitude
Exits shadow 04:30:28 - 340° (NNW) 1,487 4.0 -20.2°
Reaches altitude 10° 04:30:44 10° 343° (NNW) 1,386 3.9 -20.1°
Maximum altitude 04:33:31 29° 45° (NE) 731 3.1 -19.5°
Drops below altitude 10° 04:36:18 10° 108° (ESE) 1,398 4.6 -18.8°
Sets 04:38:32 0° 120° (ESE) 2,256 5.5 -18.3°
